CAPE
1618 1186 1386 2082 2071 1969 2105 2285 2486 2640 2537 2386 2653 2450 2151 2082 1972 1908 1862 1821 1754 1760 1772 1884 1830 1629 1315 1382 1426 1393 1408 1555 1681 1796 1846 1852 1874 1811 1768 1618 2218 2193 2062 2112 2173 2150 2115 2032 2078 1968 1683 1417 1132 1006 1115 1028 1470 1550 1357 1744 1507 1017 670 812 841 731 717 640 576 441 259 317 204 196 176 127 321 155 215 244 4 0 1 19 1
1292 1101 1317 1831 1997 2012 2112 2230 2473 2692 2849 2926 2768 2479 2298 2156 2114 2023 1964 1956 1974 1956 1950 1906 1624 1516 1332 1357 1375 1318 1333 1475 1648 1888 1759 1680 1672 1664 1672 1576 1670 1582 1761 1730 1632 1795 2130 2031 1764 1562 1431 1186 1082 1043 1155 1342 1303 1599 1650 1568 1262 1144 975 870 848 624 546 704 692 445 253 237 219 283 154 548 276 104 137 111 84 7 0 1 4
1325 974 1498 1658 2022 2025 2056 2226 2436 2669 2721 2600 2577 2658 2400 2279 2234 2194 2224 2184 2117 1966 1916 1743 1406 1442 1206 1369 1321 1285 1352 1434 1635 1793 1846 1783 1612 1597 1487 1352 1624 1618 1509 1531 1436 1472 1217 1548 1492 1488 1389 1187 1159 1148 1046 1343 1254 1384 1443 1330 1198 1034 943 760 723 946 931 754 628 481 459 351 296 348 467 420 310 112 80 64 37 6 0 5 2
1202 1000 1445 2047 2016 2036 2190 2234 2372 2436 2435 2461 2620 2696 2604 2488 2450 2407 2355 2200 2014 1936 1836 1603 1401 1360 1249 1335 1280 1266 1268 1310 1441 1626 1784 1669 1619 1530 1564 1689 1639 1636 1473 1284 1294 1368 1388 1545 1468 1454 1331 1258 1114 1031 916 1063 1329 1380 1387 1223 1047 1179 1253 1264 918 812 996 891 571 717 623 477 447 517 440 437 398 173 82 45 2 2 0 3 17
1403 1048 1542 1624 1946 2112 2150 2241 2300 2356 2361 2396 2437 2439 2450 2512 2422 2282 2318 2111 1996 1868 1598 1358 1279 1276 1276 1342 1292 1272 1261 1210 1253 1357 1722 1811 1634 1318 1342 1351 1412 1578 1410 1334 1316 1304 1350 1318 1368 1330 1262 1196 1070 983 965 1104 1254 1236 1280 1208 1093 1029 1026 1025 1052 1006 791 1073 935 1563 480 380 369 440 372 319 342 343 218 92 31 10 6 14 30
1183 1361 750 998 1534 1920 2141 2216 2231 2312 2344 2470 2362 2081 2038 2180 2180 2336 2232 2018 1848 1737 1535 1444 1393 1447 1379 1335 1325 1318 1278 1231 1221 1297 1431 1685 1711 1519 1518 1197 1351 1488 1500 1387 1296 1271 1363 1347 1356 1343 1287 1128 1118 1124 1151 1057 1177 1142 1118 1038 954 911 991 912 1086 1068 1264 1102 1408 1593 641 400 341 274 386 331 526 390 162 159 150 85 67 30 17
1415 1007 659 742 1486 1770 2118 2134 2185 2270 2350 2435 2244 2104 2210 2226 2262 2235 2210 2028 1890 1725 1617 1550 1527 1437 1456 1485 1427 1312 1253 1302 1357 1390 1583 1895 1886 1671 1166 1152 1218 1254 1064 965 1360 1550 1470 1351 1344 1379 1294 1231 1218 1160 969 1080 1127 1053 1020 998 918 818 944 929 1093 1132 1059 1350 1761 869 818 604 480 368 310 306 356 387 188 186 107 93 130 70 36
1965 664 671 698 1263 2121 2084 2105 2131 2149 2213 2337 2424 2344 2376 2367 2272 2141 2000 1910 1848 1736 1666 1613 1497 1458 1540 1641 1579 1452 1427 1472 1476 1476 1832 1678 1709 1730 1687 1287 1071 1080 1103 1313 1425 1392 1426 1488 1424 1223 1259 1240 1290 985 949 954 1092 1032 938 888 886 880 848 1017 902 1330 1361 1565 1340 699 921 563 528 590 479 345 675 684 356 159 154 102 86 87 58
1527 940 824 799 1736 1879 2072 2044 2033 2109 2166 2080 2159 2323 2338 2358 2223 2081 2020 1943 1824 1729 1679 1586 1482 1524 1600 1645 1611 1628 1671 1588 1480 1568 1880 1891 2157 1936 1696 1542 1366 1338 1455 1446 1347 1400 1390 1372 1392 1372 1224 1304 1089 1002 1120 1137 1151 1164 1204 1115 845 772 948 824 1157 1118 1397 1471 1330 1288 1278 780 643 531 400 698 849 717 504 261 164 114 83 45 27
1649 1354 1365 1478 1716 2097 2065 2007 1987 2058 2026 2070 2254 2286 2217 2261 2188 2069 1955 1968 1854 1742 1616 1451 1422 1514 1658 1682 1690 1510 1326 1271 1458 1667 2100 2212 2222 2061 1894 1726 1643 1586 1530 1450 1381 1380 1395 1404 1452 1395 1488 1319 1222 1294 1259 1218 1222 1531 1568 1522 1271 1297 940 1017 1247 1297 1590 954 870 1107 1324 1260 704 317 133 443 839 821 338 51 208 108 59 61 20
1919 1469 1306 1690 1547 1931 1946 1992 2039 2042 2038 2114 2201 2176 2193 2116 2088 1999 1976 1906 1792 1700 1540 1421 1500 1687 1586 1501 1479 1482 1483 1555 1650 1792 1939 2112 2013 1885 1786 1622 1700 1476 1437 1390 1205 1290 1250 1561 1484 1595 1513 1485 1521 1471 1446 1432 1444 1375 1383 1457 1399 1386 1253 1456 1276 1586 701 272 280 310 405 1052 702 544 844 577 531 310 305 263 172 182 106 54 28
1748 1682 1964 1859 2027 1860 1899 1957 2028 2033 2071 2181 2164 2217 2135 2127 1906 1910 1963 1813 1770 1650 1538 1810 1891 1569 1438 1079 1472 1568 1315 1586 1617 1788 1786 1925 1857 1811 1718 1601 1552 1442 1449 1299 1204 1911 1871 1792 1915 1726 1475 1338 1416 1393 1315 1328 1302 1334 1233 1413 1432 1537 1402 1622 1648 1697 934 1785 1356 1044 990 722 566 510 621 594 592 435 300 256 67 0 44 94 47
2010 2050 2043 1880 1611 1866 1895 1998 2011 2023 2052 2015 2113 2095 2041 2044 1886 1801 1786 1722 1756 1809 1930 1977 1745 1634 1314 1347 1653 1570 1715 1619 1626 1806 1872 1796 1783 1760 1741 1654 1605 1623 1528 1374 1802 1997 1872 1655 1636 1515 1376 1230 1398 1426 1395 1255 1171 1416 1313 1367 1390 1390 1454 1598 1352 1568 911 1203 1114 1250 916 932 606 529 603 578 502 379 337 243 133 129 121 81 49
1624 2273 2112 1620 1514 1790 1854 2019 1978 1948 1946 1987 1935 1933 1906 1859 1735 1773 1946 1940 2086 2151 1924 1695 1559 1724 1666 1660 1457 1602 1516 1613 1777 1867 2064 1852 1731 1745 1724 1630 1561 1572 1437 1322 1299 1498 1497 1387 1343 1298 1253 1196 1244 1254 1324 1328 1322 1217 1535 1424 1214 1324 1327 1502 1498 1288 1072 1202 1165 987 1195 851 588 561 469 585 668 567 594 512 319 79 58 47 42
2017 2082 1662 1522 1355 1290 1999 1951 1989 1982 1956 1895 1740 1829 1683 1639 1788 2026 2087 2091 1826 1425 1499 1372 1297 1442 1674 1740 1722 1682 1641 1706 1624 1757 1876 1827 1714 1692 1646 1546 1451 1356 1280 1238 1163 1070 1249 1239 1060 1052 1043 1039 1110 1157 1294 1338 1457 1359 1507 1705 1246 1603 1355 1272 1345 1212 1268 763 1100 1030 918 606 972 740 420 572 576 535 407 392 175 199 160 107 68
2576 2080 1851 1744 1299 1365 1276 1424 1705 1705 1839 1589 1646 1780 1649 1757 1968 1999 1731 1316 1072 1118 1342 1273 1562 1667 1703 1722 1760 1668 1577 1489 1770 1794 1843 1831 1660 1668 1587 1441 1385 1286 1250 1110 933 955 1064 1083 983 936 906 911 1035 1132 1074 1036 1048 1060 1191 1556 1468 1534 1593 2048 1981 1342 1205 1124 784 1163 791 780 1356 749 618 486 508 645 535 372 178 174 224 155 81
2346 2022 2028 1594 1457 741 863 826 1051 1833 1849 1910 1928 1835 1789 1843 1676 1440 786 945 950 952 1526 1630 1905 1893 1917 1804 1725 1651 1466 1555 1704 1822 1752 1645 1546 1502 1478 1388 1306 1299 1081 981 1086 1112 1050 1017 1053 988 938 985 1043 1049 874 1010 993 786 868 1282 1536 1558 1824 1664 1835 1523 1521 1138 948 1055 1055 790 1355 772 670 557 474 390 406 499 511 277 171 125 31
2688 2658 2277 1967 1550 957 1016 1101 1620 1515 1416 1538 1121 1097 976 844 918 1068 1084 952 833 866 1334 1935 1698 1658 1972 1892 1747 1727 1728 1495 1793 1767 1629 1631 1476 1477 1409 1397 1279 1318 1265 1127 1009 1055 886 953 1028 980 1071 1043 850 862 896 915 1095 858 732 1072 1404 1529 1814 2069 2279 1437 1015 1186 1096 947 1055 989 1537 785 655 556 432 370 431 529 343 184 54 101 62
2628 2543 2308 1746 1463 1014 1163 1185 1323 1514 1303 1195 794 734 614 296 412 947 877 722 512 982 1077 1936 1622 1797 1867 1875 1853 1690 1611 1658 1612 1620 1637 1701 1529 1450 1379 1352 1346 1396 1340 1121 1002 1097 1076 921 1009 1051 1123 989 692 495 745 855 821 671 714 1223 1603 1665 1939 2190 1648 1233 619 1269 1146 1204 1047 1294 1175 766 656 567 466 527 683 638 427 321 204 141 96
2124 2127 2118 1995 1636 1415 752 941 972 1422 1470 595 588 585 326 40 43 537 464 790 495 940 1231 1675 1678 1710 1539 1883 1722 1607 1620 1551 1767 1626 1636 1643 1622 1246 1346 1385 1286 1272 1110 1062 1105 1036 1068 1177 1150 1170 999 862 594 457 552 770 645 688 754 1177 1539 1802 2070 1888 828 744 877 986 1166 934 1176 1013 1170 694 646 568 552 641 639 449 360 384 283 186 185
1899 1752 2051 2190 2176 1058 858 794 1052 1282 1304 501 383 607 397 268 447 300 353 772 607 847 1146 1299 1453 1392 1507 1749 1490 1148 1425 1468 1523 1378 1583 1374 1598 1526 1388 1347 1174 1069 1110 1029 1086 1056 1048 1351 1271 1184 904 735 708 533 793 799 830 806 654 891 1725 1684 1648 1149 976 1009 631 526 970 856 1437 1029 1105 717 683 639 578 581 547 476 476 544 476 311 184
1821 1900 1923 1882 1321 1558 889 1211 811 1211 1435 663 270 657 602 683 466 560 598 806 729 843 1124 1150 1023 1440 1204 942 741 823 1279 1279 1288 1241 1324 1571 1458 1555 1473 1367 1234 1220 1130 1219 1287 1138 1200 1240 1379 1099 903 585 597 225 226 620 162 1005 849 811 1307 1272 955 1180 1158 866 1096 561 1011 1215 1220 1354 983 902 714 660 500 549 526 640 700 705 439 274 185
1584 1601 1483 1471 1226 1271 886 862 938 712 1306 904 822 951 863 637 398 383 631 559 794 1522 1387 1230 1122 749 477 586 637 1167 1394 1323 1391 1171 1036 1167 1356 1519 1442 1424 1460 1388 1318 1416 1314 1288 1323 1350 1271 1122 672 553 658 377 333 170 234 171 324 552 1134 734 1201 1116 593 1032 685 1025 777 1368 1206 1536 1095 881 712 593 459 406 308 492 556 532 413 276 182
1629 1398 1050 974 1309 1670 940 1229 882 815 1322 1398 429 878 1102 897 694 922 830 771 1030 1625 1186 1210 1574 638 706 706 914 1211 1316 2010 1473 1332 1218 1332 1490 1496 1275 1375 1432 1502 1418 1358 1407 1387 1480 1325 956 877 893 318 240 390 401 582 389 231 515 842 540 1079 1398 1190 708 654 1090 820 772 1621 1408 1376 1173 969 876 656 503 493 389 557 532 466 348 344 245
1518 1000 1154 1024 1208 1452 1216 913 885 898 996 1528 1283 1507 1279 1206 1292 1361 1441 1235 1094 1396 1763 1426 767 1043 794 859 786 1152 1406 1428 1472 1329 1235 1128 1104 1213 1396 1132 1456 1242 1589 934 1196 1035 1366 651 410 554 167 233 366 484 550 618 604 352 465 600 659 828 1160 1248 903 988 742 1148 1022 1396 1537 1470 1588 972 944 768 543 408 523 566 446 370 303 350 371
1450 1393 1088 1279 1326 1256 1054 1190 1381 1270 820 1254 1758 1063 1028 899 1106 1703 1457 1438 1075 1107 1251 975 1223 863 668 546 734 961 1274 1612 1629 1758 1461 1389 960 1307 908 1488 977 754 1037 1561 702 632 680 413 177 62 254 278 469 731 360 717 340 322 443 425 492 752 612 799 709 1099 1408 1297 1084 1401 1637 1657 1553 1542 956 804 545 530 471 334 437 336 313 420 440
1652 1384 1340 1290 1091 1525 1623 1426 1046 933 1299 815 1113 1738 1083 1162 1241 1275 994 1090 983 889 752 984 1370 1240 666 625 1024 1263 1072 1157 1566 1528 1495 1351 1372 1103 1406 883 1265 1091 971 1692 1193 1216 517 806 579 421 606 579 427 540 492 382 598 443 237 288 363 381 438 380 854 658 1299 1417 1176 1269 1766 1666 1737 1832 988 842 578 550 438 390 425 247 266 399 600
1506 1767 1163 1570 1465 1492 1526 1618 1470 1572 1498 1461 1249 824 795 746 1680 1390 1387 1330 991 559 1039 732 1159 1470 842 987 1530 1666 1120 1218 1449 1409 1405 1433 1288 1061 968 797 810 798 1323 1289 1272 1115 1384 999 666 713 795 602 570 716 576 586 208 247 420 187 216 277 508 418 693 995 1131 1516 980 1528 1790 1620 1879 1736 1061 857 608 531 420 390 385 305 217 333 710
1744 1774 1437 1410 1451 1484 1780 1725 1613 1306 1458 1567 1363 1214 775 788 1093 851 974 1156 1131 1265 1001 833 1446 1598 1729 988 1227 1508 1244 1515 1453 1491 1706 1514 1382 1160 1447 961 928 832 1480 1025 1634 670 907 949 1075 893 774 1082 1076 881 691 671 578 227 312 264 308 127 285 405 714 761 1266 1616 1139 1252 1881 1644 1822 1800 1816 872 679 382 492 431 350 329 217 320 668
1774 1464 1174 1114 1550 966 1426 1725 1648 1318 1352 1446 974 1115 1097 1311 810 871 1348 1000 1111 1364 1280 899 1516 1405 1297 1157 1294 1383 1529 1299 1459 1595 1527 1296 1229 916 699 735 837 829 970 669 1330 1093 871 975 1332 867 1593 1325 811 990 721 792 508 413 170 260 105 295 354 308 332 339 654 1335 1223 1453 1714 1881 1729 1848 1845 1012 602 507 480 478 457 374 158 206 449
1643 1419 1538 866 687 1538 1434 1434 1349 1225 1112 902 714 1090 1122 496 1280 1562 1056 1445 1402 1078 1309 1519 938 844 1485 937 882 828 788 1047 1340 1230 1384 1180 1038 1247 997 1152 838 730 1192 1678 1083 742 952 1532 1479 1250 1598 2025 1248 1529 1285 948 914 248 174 163 168 239 411 177 302 282 651 1078 1644 1470 1330 1825 1655 1562 1508 1320 972 582 528 536 447 271 261 251 223
1627 1464 1458 1329 626 713 1167 1356 1525 1286 799 806 922 749 906 1490 1522 1443 1480 1472 1719 1497 1376 1350 1009 701 888 952 636 551 596 890 949 1052 784 965 719 1066 988 825 1329 819 1188 828 729 818 970 744 810 764 780 1271 1598 1326 1831 951 558 430 142 309 227 218 367 322 362 309 321 1380 1548 1614 1262 854 1567 1413 1610 1294 1262 895 675 605 540 343 416 289 359
1808 1496 1671 1611 816 751 1340 1104 1211 1116 1156 1620 1109 886 1334 1287 1659 1496 1865 1527 1525 1516 1177 1221 1100 1091 1360 1335 939 708 765 880 910 631 630 1108 1096 1013 1317 1142 1031 1083 899 903 964 956 792 980 644 939 751 919 1327 1279 940 1036 491 627 494 540 415 230 278 284 150 445 344 1054 887 987 1510 1124 886 1344 1216 1571 1126 1335 1358 1131 654 432 462 367 271
1546 1197 1835 1227 775 1112 1436 1176 1051 1096 1092 1181 1249 1361 1685 1585 1664 1449 1446 1663 1481 1196 1161 1286 1616 1573 1660 1212 1611 851 945 841 836 922 783 784 1108 1115 986 1020 678 847 782 839 899 629 664 846 787 832 766 1050 974 1014 961 796 895 926 766 518 544 635 325 377 406 262 316 405 1749 1239 1566 1491 1205 820 1211 1692 1164 1332 1146 1245 774 650 314 316 256
1478 1097 1847 1263 1076 1357 1517 1202 1235 1083 1137 1192 1139 1455 1345 1702 1597 1593 1698 1715 1584 1340 1300 1427 1301 1029 1588 1648 1457 1080 943 690 689 1083 955 899 1427 1466 929 694 841 762 986 742 999 816 730 539 604 646 864 920 1010 765 804 952 1054 955 1070 1119 589 371 479 302 389 706 379 314 1781 1254 1398 1749 1838 1116 1051 1128 1627 1267 1066 1123 853 738 607 507 282
1805 1627 1378 1016 1372 1560 1526 943 952 962 855 1292 1466 1498 1651 1502 1017 1294 1794 1471 1129 1010 1653 1470 1421 1217 1319 1526 1534 852 1086 1093 1171 1279 1784 1401 993 878 1247 702 1043 1173 1331 948 1119 789 598 730 586 617 916 1051 1093 906 734 566 635 1064 1105 1134 1108 733 584 345 418 284 211 640 458 1081 1128 1252 1618 2054 1708 1618 1237 1163 954 915 1400 1306 824 513 377
1779 919 1050 1250 928 1534 1107 1082 889 1092 1720 1714 1282 1510 1366 1423 1532 1257 1304 1597 1425 1496 1122 1282 1057 1343 661 1280 1158 1229 793 1078 1310 1304 1572 1424 1120 748 1031 1232 1041 1054 1424 1499 1324 665 957 658 796 627 893 1148 1160 958 644 732 724 1288 1326 1325 1231 957 970 953 796 866 416 653 724 1086 1095 876 1146 1027 1296 875 884 1188 990 1176 1560 1322 1061 925 613
1710 1016 961 998 1012 916 809 859 988 1386 1990 1768 1691 1538 1397 1294 1344 1425 948 1025 1325 1469 1458 1570 1432 1361 1284 1344 1424 1441 1313 969 966 1137 998 1327 1179 1350 1502 1592 1276 1169 1244 604 983 1021 703 838 714 719 812 1013 1038 1290 845 580 517 652 1076 1373 1342 1251 1284 1311 968 714 753 494 757 577 1084 815 828 1037 913 1130 764 896 1314 1109 1306 1088 1076 1056 1124
1087 976 794 613 567 869 1112 1150 1288 1120 1194 1203 1152 1287 1404 1354 1058 1241 1073 1137 1140 1208 813 589 801 1771 1437 1742 1590 1561 1481 1451 1330 1292 1230 1256 1227 1421 1464 1546 1204 878 1370 979 1220 923 489 708 1142 1050 756 855 959 1153 852 452 644 514 856 784 774 897 1295 1282 801 1155 1084 1068 1070 604 914 1209 792 879 705 933 842 1261 1225 1080 926 1086 1226 1137 1297
1102 814 906 765 872 849 1235 1398 1472 1298 1226 1233 1218 1280 1405 1563 1517 1503 1302 1072 641 573 574 424 390 610 919 1868 1606 1439 1563 1554 1426 1443 1355 927 1275 1403 1560 1511 1090 1030 1073 1114 849 1007 911 1028 1072 1161 1156 951 1169 1131 1404 1312 1120 802 878 919 993 830 885 963 1149 886 1016 1436 1407 1045 1168 1142 1326 884 797 944 1390 1174 1053 1147 1403 1061 926 1020 990
1071 891 876 791 773 1055 1227 1206 1366 1314 1092 1103 1066 1348 1485 1552 1712 1427 961 784 371 470 443 301 378 380 357 323 402 520 1256 1649 1454 1455 1076 1011 816 930 1442 1377 1310 1197 1116 843 734 895 1126 1393 860 1172 1327 882 1100 1105 1114 1248 1197 1316 868 1193 1012 1316 989 720 760 939 939 802 996 1059 1126 1400 1256 1008 814 1127 1223 962 1224 1226 1206 1141 1060 1154 855
1019 940 1028 875 1454 1496 1269 1295 1362 1287 1138 1249 1190 1366 1879 1744 1567 1282 664 378 349 293 324 352 472 504 464 468 394 355 433 434 438 464 408 361 383 620 667 1152 684 924 787 1240 1319 952 1008 1076 905 882 1001 973 1026 1027 1262 1196 1302 902 930 973 1284 737 806 658 806 742 822 1040 1142 928 799 602 584 1454 965 737 1076 1074 1146 1244 1498 1303 1180 1347 1268
829 697 635 995 1152 1257 1198 1115 1309 1147 1146 1237 1237 1767 2090 1812 1441 870 457 311 261 271 303 277 216 197 456 391 467 423 290 271 288 196 209 117 178 190 215 191 180 236 351 311 506 1054 1219 1325 1217 612 796 831 982 1058 859 818 1223 879 664 644 908 959 793 819 654 639 844 1010 983 968 770 626 761 945 864 682 479 902 652 1078 1029 868 991 1045 1053
950 802 875 1147 1287 1064 1062 1138 1354 1377 1344 1542 1715 2113 2143 2060 1170 857 575 534 492 396 404 255 118 105 244 250 334 237 100 153 3 0 4 152 214 171 139 199 212 232 269 160 185 160 1110 1396 1145 959 577 686 375 816 971 1063 623 721 256 262 368 416 458 248 1082 957 779 703 843 999 1084 1013 676 651 464 711 612 570 561 989 686 694 898 947 754
986 1037 1015 1040 1237 1155 1235 1659 1501 1610 1562 1611 1988 2051 1941 1714 1209 908 706 768 545 306 160 178 285 186 93 218 118 111 89 33 33 40 81 213 221 265 246 258 244 237 138 58 103 196 56 132 388 556 896 815 383 973 1032 1065 1221 1068 455 686 423 363 512 631 428 602 682 914 903 785 415 487 836 1006 1012 1093 752 1135 553 750 770 641 624 828 578
950 1102 1310 982 902 1063 1555 1987 1898 1421 1649 1907 2098 1669 1556 1450 1208 998 799 544 429 417 348 196 90 224 127 132 134 141 111 63 35 28 32 58 169 173 218 101 94 97 78 29 50 210 336 277 311 242 836 864 655 519 934 1012 952 1152 798 939 476 248 233 432 580 433 351 998 456 442 694 974 977 1010 988 840 785 1452 294 928 480 497 384 448 652
1011 1366 1359 906 651 1188 1378 1327 1484 1621 1837 2226 2018 1668 1510 1263 1120 753 614 495 483 452 402 428 276 69 111 192 185 133 68 92 65 42 118 117 167 143 91 48 11 37 15 84 133 142 159 374 384 680 402 593 741 640 753 970 650 724 812 931 1077 1253 826 780 794 644 503 412 664 623 527 487 425 165 122 98 173 166 190 335 391 727 404 418 542
1302 1134 929 796 585 740 1171 1220 1211 1588 1760 1856 2177 1742 1202 1062 889 702 522 462 509 750 553 317 152 120 86 70 43 28 17 43 66 27 67 74 79 46 14 1 0 0 0 3 99 128 96 161 214 220 286 645 930 970 597 462 373 388 907 1007 1153 1158 980 670 622 863 363 281 408 339 253 118 15 0 0 0 0 0 0 11 41 106 72 341 515
1441 932 579 670 763 819 768 1000 1233 1746 1717 1519 1656 1205 725 825 943 780 472 374 630 592 311 136 172 175 171 41 17 38 95 29 6 5 0 0 0 0 0 0 0 0 0 6 35 51 38 33 73 205 204 272 345 595 802 815 527 469 772 775 720 518 780 774 789 838 578 561 439 284 143 19 0 0 0 0 0 0 0 0 2 16 26 49 45
1619 1048 600 717 658 867 992 1112 1363 1577 1617 1379 1372 1049 830 669 680 1011 326 402 422 236 126 222 223 300 258 60 6 3 4 4 0 0 0 0 0 0 0 0 6 0 0 0 0 0 0 0 13 154 174 134 161 196 242 250 202 225 85 127 210 156 309 552 561 772 644 724 322 193 191 164 10 0 0 0 0 0 0 0 0 2 0 0 0
1532 1010 836 1004 1266 1070 993 994 1122 1167 1351 1224 1382 1327 849 434 305 642 353 502 416 300 260 184 180 182 57 67 47 12 0 0 0 0 0 0 0 0 0 1 4 0 0 0 0 0 0 0 0 6 19 9 3 6 0 0 0 0 0 0 0 3 3 53 171 495 350 365 538 280 188 61 0 0 0 0 0 0 1 0 1 2 0 0 0
Wind_Speed
35 42 40 43 39 39 39 39 38 38 39 41 42 43 43 44 45 44 44 42 40 39 39 38 36 36 36 34 34 33 31 29 27 27 27 27 26 26 26 26 25 23 23 22 21 20 19 17 17 17 15 14 14 14 15 14 13 12 14 16 14 13 13 13 13 12 12 12 12 12 11 12 12 11 13 14 17 18 18 16 nan nan nan nan nan
39 41 40 42 41 40 40 40 40 40 40 42 44 45 45 46 46 45 45 44 41 39 38 38 38 37 35 34 33 33 31 29 26 25 27 28 26 25 26 25 25 23 22 22 21 21 20 18 17 17 16 15 14 14 15 14 15 14 14 15 15 14 13 12 11 11 12 13 14 13 11 11 12 12 12 16 18 18 18 19 nan nan nan nan nan
40 41 41 43 42 41 40 40 41 41 43 45 46 47 48 48 47 46 46 44 42 40 38 39 38 36 35 33 33 33 31 29 27 25 26 27 26 24 25 25 23 22 21 20 20 19 18 17 16 16 16 14 14 14 13 15 15 16 15 15 15 14 12 10 9 10 12 14 14 15 14 13 12 12 13 16 18 17 nan nan nan nan nan nan nan
42 40 41 43 43 42 41 42 42 43 45 46 47 48 48 48 48 47 46 45 43 41 40 40 38 36 35 34 33 33 32 30 28 27 26 27 25 24 25 25 23 22 21 19 19 19 18 17 16 16 15 15 14 12 13 14 15 16 16 15 14 13 9 6 7 8 9 10 14 16 8 9 10 11 12 15 17 17 nan nan nan nan nan nan nan
42 42 43 43 43 43 42 43 43 45 46 46 47 48 49 48 48 47 46 45 43 43 43 42 40 37 36 34 34 34 32 31 29 28 25 25 25 23 23 23 23 22 21 19 17 17 17 16 16 16 15 15 13 12 12 13 15 15 15 14 13 11 8 5 6 8 10 11 13 10 8 9 7 9 11 14 16 16 16 nan nan nan nan nan nan
44 43 43 43 43 44 43 44 45 46 47 47 48 49 48 48 49 47 46 44 44 46 45 44 42 39 37 35 35 34 33 32 31 30 27 25 24 24 23 22 22 22 21 18 17 16 16 15 15 15 15 15 14 12 12 13 14 15 14 13 12 9 6 3 4 8 8 10 15 9 6 7 6 6 12 13 15 15 16 16 16 nan nan nan nan
45 43 43 42 42 44 44 45 45 46 46 47 48 48 48 48 48 47 46 45 45 46 46 45 43 40 37 35 34 34 34 33 32 31 27 25 24 23 23 22 22 21 19 18 16 16 15 14 14 14 14 16 14 13 13 13 14 15 14 13 10 7 4 1 3 8 10 10 8 2 5 7 6 6 10 12 13 15 17 17 15 nan 17 nan nan
44 42 42 42 41 45 44 44 45 46 46 46 47 48 47 47 47 47 48 47 46 46 46 44 42 40 37 35 34 33 34 33 33 32 27 26 25 23 21 20 20 20 20 19 17 15 15 14 14 14 15 15 14 13 13 13 14 14 13 12 9 4 3 2 5 9 11 9 3 3 5 7 7 7 9 11 14 15 16 17 16 16 nan nan nan
43 44 42 42 44 48 44 44 44 45 46 47 47 46 46 46 47 48 48 47 46 45 44 42 40 39 37 35 34 32 33 34 34 33 30 28 28 27 23 20 19 19 19 19 17 15 15 14 14 14 16 15 13 13 13 13 13 14 13 12 8 5 1 3 7 9 9 4 3 5 6 7 7 8 9 14 16 15 13 15 15 18 nan nan nan
42 42 42 41 43 46 44 42 43 44 46 46 46 47 47 46 46 47 47 45 43 42 41 39 38 37 35 35 34 34 34 35 34 34 33 33 31 29 27 23 20 18 19 19 18 16 15 14 14 16 17 16 14 13 13 13 13 13 12 11 8 4 3 4 6 8 8 8 6 7 13 12 9 8 9 13 16 18 21 nan 20 18 nan nan nan
41 41 40 42 47 45 44 43 43 44 46 45 45 46 47 47 47 46 45 42 39 38 38 38 37 35 34 35 34 35 35 35 35 35 35 35 32 30 26 22 20 19 20 19 17 17 17 16 15 17 18 17 14 12 12 13 12 11 11 9 7 6 4 4 5 4 7 8 7 5 8 13 9 8 11 12 14 17 20 18 18 19 19 nan nan
40 39 39 41 47 45 44 43 43 43 44 45 45 45 44 44 44 44 40 38 36 37 37 36 35 35 37 35 32 36 37 36 35 35 36 35 33 30 27 23 21 21 20 19 18 18 17 17 18 19 18 16 13 12 12 12 12 11 10 10 7 5 5 6 4 3 9 11 5 5 9 10 10 9 12 14 14 15 16 18 nan nan nan nan nan
39 36 39 40 41 43 43 43 43 43 44 44 44 44 43 42 41 40 39 38 38 39 39 36 36 36 36 34 36 36 36 35 34 35 36 35 33 30 27 25 24 23 22 21 21 19 20 19 18 18 17 14 12 12 12 12 12 11 10 9 8 6 4 3 4 3 11 9 6 6 9 9 10 10 11 13 14 14 15 16 17 19 20 nan nan
39 37 38 38 38 43 41 43 43 44 44 43 44 43 42 40 41 39 37 38 39 41 40 36 36 36 36 36 38 38 36 34 33 35 36 35 32 30 27 27 26 24 23 21 20 19 18 18 18 18 16 14 12 14 14 13 12 12 11 9 8 5 4 4 2 10 11 11 9 9 10 9 10 10 12 13 14 15 14 15 16 nan nan nan nan
39 38 38 38 39 40 44 41 43 44 43 43 42 42 41 41 37 37 37 39 40 41 39 37 32 35 37 38 39 39 37 35 34 35 36 34 32 30 28 26 25 24 23 21 19 19 19 17 18 19 17 15 14 16 16 16 14 14 12 10 7 5 6 7 8 16 13 9 8 9 11 9 8 9 12 13 14 14 15 16 16 18 19 19 nan
36 38 38 38 39 39 39 43 43 44 44 44 43 42 41 38 36 35 35 36 35 35 37 32 33 35 37 39 41 41 40 39 38 36 35 33 31 29 27 25 24 23 22 21 20 20 19 19 20 20 18 15 16 19 18 18 17 14 13 11 8 7 6 8 7 17 14 13 13 13 11 10 8 11 12 13 14 15 14 15 16 17 19 19 nan
33 35 36 38 39 38 38 40 44 47 42 40 41 40 37 35 35 35 34 29 31 28 34 33 34 37 38 41 44 45 44 42 41 37 34 33 30 27 25 24 23 22 22 22 23 23 19 18 19 20 19 17 17 20 19 18 17 16 13 11 9 9 9 8 9 17 15 16 13 14 12 10 9 9 11 12 14 15 16 17 17 16 16 17 nan
34 33 35 36 36 37 38 41 44 37 36 38 39 36 35 36 32 30 33 32 31 27 30 34 34 36 39 42 47 49 48 45 41 37 34 32 28 25 25 23 23 23 24 24 23 23 21 20 20 21 20 19 17 19 19 18 18 17 14 12 10 10 9 11 10 20 20 14 16 17 17 16 9 9 9 12 14 14 16 16 16 15 nan 17 nan
34 34 35 35 35 37 37 38 35 33 34 31 31 33 36 34 30 27 29 30 26 27 35 35 36 37 40 45 49 51 48 43 39 35 33 30 26 25 25 23 23 24 24 24 24 24 22 21 22 22 20 20 17 16 19 19 18 17 16 13 11 11 13 13 14 22 21 15 19 20 18 18 11 9 10 10 13 15 16 16 15 16 15 15 nan
32 33 34 33 34 37 36 33 32 34 30 30 32 33 35 nan nan 29 24 26 27 26 31 34 33 36 41 46 50 49 45 40 38 33 31 29 23 24 24 24 23 24 24 24 25 24 23 23 22 21 21 19 18 16 15 19 18 18 15 15 12 11 15 15 16 20 22 22 23 20 22 19 12 12 10 11 12 15 16 15 15 16 16 17 18
30 32 32 33 35 37 37 34 33 33 32 33 33 32 31 32 29 29 20 24 26 26 31 32 31 34 39 47 49 46 41 37 32 28 27 23 24 26 24 23 24 24 25 24 24 23 23 22 22 21 19 19 17 17 15 14 18 17 17 13 13 14 15 19 20 21 22 19 23 22 24 18 15 14 12 11 12 12 13 14 17 17 17 16 16
30 30 32 33 34 32 34 35 34 33 32 30 29 26 28 28 27 23 20 22 18 22 27 27 29 30 39 45 47 37 29 29 28 25 21 23 24 24 23 24 24 25 24 24 25 24 23 22 21 20 18 17 16 17 19 17 15 17 15 15 14 14 17 19 17 20 24 24 23 24 25 17 18 16 14 13 12 12 12 16 17 19 19 18 17
29 29 29 30 29 30 32 33 32 30 28 32 29 28 29 27 25 22 20 19 16 18 17 18 21 24 33 40 35 27 25 25 24 20 21 23 25 23 24 23 23 24 23 24 24 24 24 22 20 19 18 15 15 15 18 21 19 17 16 14 13 15 20 18 17 21 22 26 23 27 24 18 20 17 17 15 14 12 12 14 15 16 18 18 18
29 29 29 27 28 30 32 32 33 31 27 29 31 30 29 28 25 22 20 17 14 12 14 15 15 24 31 30 26 26 26 24 25 24 26 23 23 22 23 24 23 23 23 22 24 23 23 21 19 17 16 16 16 17 17 22 22 20 18 15 14 19 18 18 18 19 24 22 25 28 23 20 19 20 18 18 16 13 14 14 13 14 17 18 18
29 28 28 31 29 31 28 29 28 29 27 26 29 28 28 27 25 24 22 20 16 14 15 15 16 21 27 26 22 22 22 21 21 20 20 21 20 21 21 20 20 19 21 18 19 20 19 19 18 16 15 15 14 16 17 22 22 21 20 18 16 18 17 19 17 21 25 26 27 27 24 21 17 21 20 19 17 15 17 16 14 15 16 16 17
28 26 32 31 27 27 26 25 28 28 28 25 27 27 26 28 26 24 24 22 19 19 17 14 17 21 25 25 25 23 17 15 17 18 20 18 19 20 18 17 16 16 16 13 16 18 17 15 18 nan 15 14 14 17 18 20 21 19 20 21 18 17 19 18 19 21 30 26 26 29 24 22 19 19 22 21 18 18 19 18 17 17 15 15 16
27 28 32 28 26 23 26 29 31 30 29 30 27 25 25 26 25 24 23 20 19 19 16 13 15 16 22 21 20 22 19 18 18 19 19 17 17 18 16 15 14 11 11 15 15 12 13 15 12 15 16 15 15 17 18 19 18 20 20 22 19 18 20 19 20 23 30 26 26 28 25 22 20 19 22 21 20 20 20 19 20 18 17 15 16
26 28 32 26 25 27 28 30 29 29 28 27 26 24 25 21 21 21 17 16 16 11 10 21 15 16 19 21 21 22 24 22 19 18 17 16 15 17 17 15 12 11 10 12 15 12 14 14 14 16 16 16 16 16 17 19 20 16 21 20 21 18 20 19 22 21 29 25 26 26 24 22 21 20 20 23 21 20 21 20 21 20 19 17 18
27 29 28 27 26 26 27 29 28 28 26 26 25 22 23 21 19 16 13 11 9 10 19 21 19 19 21 25 20 23 24 20 18 16 15 15 16 14 17 13 12 11 15 11 14 13 11 17 17 15 17 15 17 16 15 18 19 18 18 19 20 19 20 19 22 21 30 25 25 26 24 21 22 21 20 23 21 20 22 21 22 21 21 21 20
27 25 26 27 24 27 25 26 29 27 27 25 22 20 18 18 19 11 14 13 10 14 15 16 16 20 22 25 22 21 22 19 15 13 12 12 14 14 14 14 14 16 18 12 14 15 15 17 18 15 20 19 18 14 13 15 16 18 16 18 20 18 22 20 21 23 30 25 25 28 24 23 22 22 23 23 23 21 21 23 22 22 22 22 21
24 23 21 26 24 27 27 26 27 27 26 20 15 11 17 13 14 16 17 15 15 14 16 14 21 22 18 19 19 18 17 16 13 13 12 9 10 12 12 13 17 14 13 13 12 10 15 14 20 19 14 14 14 12 17 18 11 15 16 15 22 18 22 19 21 24 31 28 29 27 25 25 23 24 23 23 24 23 23 23 22 23 22 23 21
22 23 20 26 28 28 27 29 28 30 25 17 16 13 15 13 16 14 15 17 17 16 15 16 25 23 17 19 20 14 11 12 12 16 13 13 10 12 12 13 17 13 13 12 15 9 16 18 20 14 9 9 12 12 15 17 14 13 14 16 20 19 21 22 20 26 26 32 31 29 28 26 25 24 24 24 26 24 23 24 22 23 24 22 23
21 22 23 28 30 26 26 28 30 29 26 24 24 21 16 17 13 14 16 15 15 15 17 23 19 22 18 20 21 20 17 12 9 9 8 10 14 16 16 16 20 13 13 13 9 12 13 15 14 12 11 9 11 13 13 14 14 9 12 18 16 20 21 21 22 23 26 35 28 32 30 27 26 25 24 25 26 26 27 24 25 23 25 24 24
22 21 21 27 22 19 22 24 30 32 27 25 23 21 21 19 13 13 15 13 14 17 18 17 18 18 17 16 18 21 22 20 11 6 7 8 11 18 15 18 18 15 12 9 15 14 14 13 14 12 9 11 10 10 11 15 10 13 11 13 17 18 18 22 21 21 24 30 33 29 30 28 28 26 24 25 26 28 27 27 25 24 24 22 24
20 24 23 26 18 18 23 26 33 33 28 21 18 20 21 17 16 16 17 14 15 16 15 15 13 13 15 15 17 20 23 23 19 16 14 12 16 16 17 18 20 17 15 13 14 14 14 13 13 10 8 10 9 9 13 7 8 9 7 11 12 15 14 16 19 18 23 26 31 28 27 28 28 26 25 25 27 28 29 28 26 26 25 24 25
17 21 20 22 17 18 25 34 34 31 21 15 18 22 22 21 19 18 17 16 16 14 13 13 11 15 17 17 18 22 23 24 21 22 20 17 21 18 17 18 15 17 16 13 13 14 12 10 9 7 7 8 9 10 7 4 3 4 4 8 11 11 12 14 15 15 17 17 23 28 20 23 25 26 30 27 26 29 28 28 27 26 26 26 27
18 16 16 20 16 20 31 35 33 26 19 21 25 25 24 22 20 19 19 19 17 17 14 12 14 18 22 23 24 25 28 23 21 20 18 17 17 20 16 18 16 15 16 13 13 13 11 9 7 9 7 7 9 9 6 3 3 7 6 8 8 8 8 12 13 12 14 14 18 21 23 19 22 28 26 28 27 24 22 25 28 28 29 27 27
20 23 24 21 17 25 31 30 24 23 21 25 27 26 24 22 20 18 20 19 17 14 14 17 19 21 24 27 27 26 24 25 20 16 16 16 16 16 16 16 17 16 16 13 10 13 11 8 6 7 7 7 8 10 9 7 6 8 5 9 10 6 7 8 9 10 10 9 15 16 21 21 24 24 23 25 21 19 21 24 26 28 28 27 26
24 26 26 24 21 30 25 22 24 28 28 26 28 28 26 25 23 20 19 17 13 15 17 20 23 24 25 26 25 23 20 18 17 16 15 16 16 16 14 16 15 14 14 14 13 13 11 8 6 5 7 7 8 10 8 11 14 6 7 9 8 7 8 8 8 10 8 11 12 11 14 19 24 25 22 17 17 17 19 20 19 21 25 24 25
25 26 28 26 29 21 21 23 27 29 28 26 26 27 26 25 23 21 18 13 13 18 18 22 22 21 21 22 20 18 17 17 17 16 16 18 17 16 16 14 15 14 14 13 13 12 11 10 7 5 8 8 9 11 11 12 14 15 12 11 11 9 13 9 9 11 11 11 11 10 13 16 17 23 24 15 17 21 19 18 17 21 19 22 25
27 25 23 33 18 19 21 27 28 30 28 25 24 24 25 25 23 20 17 17 18 19 19 20 19 18 17 18 18 17 18 18 18 18 18 18 19 19 16 15 15 14 13 16 13 13 12 12 9 7 8 8 9 10 9 10 15 14 14 14 12 12 13 13 13 14 13 9 10 12 13 14 16 17 21 17 17 21 19 19 19 18 17 19 20
30 29 32 26 17 22 27 28 28 29 29 26 23 20 20 22 22 19 17 17 18 17 19 20 19 18 18 19 18 19 20 19 19 19 18 17 17 17 16 15 14 14 14 14 15 15 13 13 11 10 11 11 10 10 10 10 12 13 12 14 15 14 16 16 13 13 13 11 12 13 13 10 11 16 21 22 18 19 20 20 18 18 17 18 19
24 28 27 17 23 25 25 26 27 29 30 28 21 17 19 22 21 20 18 17 19 20 21 20 19 20 20 21 21 21 20 20 19 18 17 17 17 16 15 14 14 14 14 14 14 13 13 12 11 11 11 11 13 11 12 10 11 16 13 12 15 16 17 20 14 12 11 12 15 15 13 13 18 20 15 27 24 20 19 16 19 20 18 18 18
26 25 19 21 24 28 27 26 28 29 30 26 18 18 20 20 22 22 21 19 20 22 21 20 21 21 22 22 22 20 20 19 nan nan nan 19 17 17 16 15 16 15 15 14 13 13 14 12 12 11 10 12 12 13 13 14 11 16 15 13 16 14 18 22 18 15 13 14 15 16 16 17 18 21 23 23 24 22 18 18 19 18 19 19 17
21 18 18 22 28 31 28 27 28 29 30 27 21 18 18 21 24 24 22 21 19 20 20 20 21 23 nan 23 23 21 nan nan nan nan nan 18 17 16 17 16 16 16 15 nan 15 14 nan 13 13 11 11 11 11 16 16 14 16 16 18 16 18 17 21 22 18 16 14 15 18 20 22 15 16 20 21 23 24 20 20 23 21 17 19 21 20
19 16 19 28 34 29 30 32 30 27 28 28 22 17 20 24 24 23 20 18 18 18 20 22 nan 22 25 24 23 22 22 nan nan nan nan nan 17 17 16 16 nan nan nan nan nan 16 15 15 14 13 13 13 13 11 16 17 15 19 18 19 17 18 20 22 16 19 15 18 21 24 22 21 19 18 19 21 23 20 23 23 27 24 23 21 18
19 18 28 36 29 23 29 29 26 24 26 29 25 21 25 27 27 25 20 17 18 20 22 23 24 nan 25 25 25 23 nan nan nan nan 18 17 17 16 nan nan nan nan nan nan 18 16 16 17 16 16 15 14 14 14 17 17 19 16 21 19 17 20 22 21 20 22 22 22 20 20 23 22 20 22 25 nan 26 26 24 26 31 28 32 30 26
21 26 33 29 20 26 32 26 25 23 24 27 27 27 26 28 29 27 22 20 20 24 23 24 25 26 nan nan nan nan nan nan nan nan nan nan nan nan nan nan nan nan nan nan nan 17 nan 17 17 17 16 16 17 16 17 17 21 14 19 18 18 18 24 22 21 18 23 24 24 25 26 26 nan nan nan nan nan nan nan nan nan 33 nan 35 33
24 29 33 26 22 25 28 24 24 25 26 27 27 29 30 34 32 26 22 22 23 23 23 24 26 26 26 nan nan nan nan nan nan nan nan nan nan nan nan nan nan nan nan nan nan nan nan nan nan 18 17 17 17 18 18 17 18 19 18 21 18 18 21 26 20 20 23 24 25 23 23 nan nan nan nan nan nan nan nan nan nan nan nan nan nan
27 33 30 24 23 23 27 29 29 29 28 27 27 30 28 31 30 23 22 23 21 21 22 24 26 26 27 nan nan nan nan nan nan nan nan nan nan nan nan nan nan nan nan nan nan nan nan nan nan 20 19 19 18 19 19 18 18 18 nan 17 18 18 19 25 19 18 20 21 22 22 22 23 nan nan nan nan nan nan nan nan nan nan nan nan nan
27 35 29 24 27 31 30 28 24 27 25 26 27 27 25 26 21 16 20 19 19 20 23 23 25 26 nan nan nan nan nan nan nan nan nan nan nan nan nan nan nan nan nan nan nan nan nan nan nan nan nan nan nan nan nan nan nan nan nan nan nan nan nan nan 22 25 21 20 19 25 24 nan nan nan nan nan nan nan nan nan nan nan nan nan nan
Wind_Direction
287 287 288 290 292 294 292 293 294 292 296 297 295 296 297 298 298 301 303 305 308 311 312 312 312 310 308 305 301 299 299 298 300 300 297 297 299 300 302 304 305 308 306 305 303 299 294 292 290 287 280 275 274 272 270 262 255 264 276 269 274 279 281 278 286 287 287 282 274 269 261 257 256 255 241 237 229 218 212 205 nan nan nan nan nan
285 287 289 290 291 292 293 294 295 294 294 294 295 296 297 297 298 301 304 306 309 312 311 310 310 309 307 303 298 297 296 296 296 299 300 298 299 301 302 305 306 306 305 303 301 295 295 294 288 280 279 278 276 273 264 257 257 259 269 274 271 274 277 281 289 298 307 307 289 275 270 269 257 251 248 236 231 225 217 215 nan nan nan nan nan
287 289 288 290 291 293 294 294 295 294 294 295 297 296 297 298 299 301 303 306 310 312 308 307 307 309 306 301 297 295 295 295 295 297 299 300 301 303 303 302 303 304 303 299 298 292 289 287 282 278 278 280 274 269 268 257 261 258 264 267 270 270 275 292 310 311 311 317 313 295 278 259 253 251 243 240 239 234 nan nan nan nan nan nan nan
288 290 289 290 292 292 293 294 295 296 296 297 296 297 297 299 300 301 303 306 309 307 305 304 307 307 304 299 297 294 294 294 294 295 297 299 302 305 304 305 306 303 301 300 296 295 292 290 287 285 280 277 273 270 270 261 258 252 254 265 269 265 269 298 330 339 334 333 328 328 290 272 252 244 244 242 242 238 nan nan nan nan nan nan nan
290 291 290 292 293 293 293 294 297 297 297 297 297 298 297 299 300 302 304 306 306 306 305 306 308 308 302 298 296 295 294 294 295 294 293 297 299 301 301 303 304 303 300 297 296 293 294 291 288 284 282 278 275 270 269 265 259 255 253 259 261 264 271 314 350 355 5 352 15 61 265 265 254 249 249 241 239 239 233 nan nan nan nan nan nan
290 291 293 293 293 295 294 296 298 298 297 296 298 300 301 301 303 304 304 305 305 305 306 307 306 304 302 299 296 296 295 295 295 293 292 291 292 295 296 298 300 300 298 298 297 293 290 290 290 287 285 281 275 272 275 269 258 256 255 257 263 269 278 281 34 50 45 14 38 60 272 266 259 253 243 241 241 241 238 232 237 nan nan nan nan
292 291 294 294 292 296 296 297 298 297 297 296 299 302 303 304 305 305 304 304 304 304 304 302 303 302 300 297 296 295 294 294 293 292 290 287 288 290 296 299 300 299 295 294 289 291 291 293 290 287 285 280 276 280 281 268 261 260 259 261 259 260 261 34 55 62 58 71 47 19 268 263 261 242 244 239 237 242 237 232 230 nan 236 nan nan
290 293 295 295 294 296 296 297 298 298 299 298 300 302 303 304 305 305 305 304 304 303 302 301 301 300 297 294 293 291 289 290 289 288 285 285 282 283 286 287 285 288 290 290 294 293 295 295 295 291 287 282 281 284 280 272 266 265 263 264 265 259 232 137 106 103 91 87 232 223 240 259 258 245 242 238 232 233 237 233 229 229 nan nan nan
293 296 296 294 293 299 296 296 297 300 301 301 301 301 303 303 305 305 305 304 303 302 301 300 299 297 293 291 289 286 286 287 286 285 282 280 276 273 272 275 281 286 290 293 293 294 296 298 297 293 289 284 287 286 278 275 275 272 264 268 272 270 329 28 53 62 73 58 249 241 207 277 257 255 247 238 236 236 244 246 244 230 nan nan nan
294 295 294 294 296 296 296 297 299 302 304 302 300 302 304 304 305 305 306 303 301 301 300 298 296 294 290 289 288 288 286 284 282 279 277 277 274 275 275 274 279 287 294 293 296 298 298 298 295 295 291 290 287 280 280 278 274 263 257 257 261 252 216 136 137 109 89 235 228 232 218 226 250 243 246 241 237 235 232 nan 219 226 nan nan nan
293 293 294 293 297 296 297 300 302 303 304 304 303 304 305 306 306 306 304 303 301 301 300 297 295 291 290 283 284 284 282 279 278 276 276 273 275 278 281 285 286 294 294 295 297 298 300 300 299 294 293 293 291 289 287 277 272 261 249 248 239 230 190 183 139 104 276 275 264 272 251 249 237 242 247 243 243 239 237 235 231 226 229 nan nan
291 289 291 291 294 298 300 303 304 304 305 304 304 303 302 303 305 304 301 301 299 300 299 293 291 288 281 284 281 280 278 278 277 275 275 273 276 281 283 286 290 294 293 293 291 277 278 286 285 289 291 295 298 297 283 267 260 252 241 237 224 200 198 179 173 204 249 247 240 250 252 254 253 250 252 247 246 244 238 232 nan nan nan nan nan
282 288 289 291 297 300 303 303 304 304 304 304 303 303 303 303 304 305 303 301 298 297 295 290 289 285 284 286 279 276 273 272 272 272 271 272 276 280 280 283 286 284 283 287 284 284 283 286 288 288 288 294 292 287 277 268 262 251 245 235 224 190 184 176 214 216 254 267 286 264 260 251 250 253 248 247 247 243 240 238 234 232 231 nan nan
287 289 293 297 298 301 299 300 301 302 302 302 302 301 302 303 305 303 301 299 297 295 291 287 286 283 284 285 282 277 271 269 270 269 268 268 271 275 275 275 277 278 279 282 284 289 291 290 289 287 285 287 287 284 278 271 259 253 244 238 229 194 169 194 34 257 268 258 231 250 251 249 245 242 244 247 246 246 243 241 238 nan nan nan nan
292 297 299 300 300 301 298 298 299 299 300 297 297 299 300 302 303 302 300 299 295 291 288 279 275 281 285 286 282 276 272 267 267 266 265 266 269 272 273 274 275 277 279 281 285 285 285 285 285 281 280 283 282 277 274 270 259 247 243 232 231 211 189 225 238 263 267 262 283 268 263 257 234 236 245 243 245 246 240 233 227 227 234 232 nan
294 299 298 298 299 299 302 301 298 297 296 297 300 300 302 302 300 298 294 284 283 284 284 284 276 278 286 286 281 277 271 265 261 260 260 263 266 269 270 272 274 276 280 284 285 282 282 279 277 280 281 281 277 271 268 266 261 252 243 236 229 224 214 214 227 270 257 266 254 260 260 253 209 246 240 242 243 245 243 239 234 231 230 230 nan
293 293 295 297 300 303 303 303 300 299 299 301 303 302 299 297 291 285 283 282 282 282 289 283 271 278 284 283 276 270 267 261 258 257 258 261 266 267 269 272 274 277 281 282 281 283 285 284 280 278 278 274 268 267 266 267 267 263 255 240 234 224 220 230 232 264 259 248 262 262 268 268 236 258 253 250 245 245 242 241 243 238 231 233 nan
294 295 296 298 302 303 302 299 299 301 304 299 289 285 285 285 280 284 289 279 283 282 282 276 271 274 279 277 271 265 262 258 256 255 257 262 266 267 269 272 276 279 281 283 285 284 286 283 277 274 272 268 263 268 269 269 268 268 261 253 237 217 219 223 236 257 258 260 253 257 258 259 230 261 258 249 246 242 241 242 239 236 nan 229 nan
292 296 299 303 303 300 294 297 300 304 307 302 297 289 284 281 282 279 279 284 286 295 285 277 272 273 278 275 269 264 259 257 255 256 259 262 266 268 266 271 276 282 284 287 288 286 285 283 280 277 274 271 266 260 270 270 268 264 263 256 242 216 210 227 245 261 263 260 253 258 263 257 244 262 255 250 247 244 245 244 245 243 239 238 nan
295 300 302 302 303 296 290 297 306 307 301 301 301 298 296 nan nan 279 274 272 274 265 275 274 274 277 277 272 266 259 254 252 257 257 263 264 268 266 272 273 279 284 286 287 288 289 288 285 282 279 277 276 273 267 264 275 274 271 264 263 247 225 228 240 250 262 258 248 256 260 268 267 255 264 258 253 251 246 245 244 241 242 237 228 229
301 305 306 302 300 301 295 300 299 299 299 301 299 295 295 297 291 280 284 264 275 293 279 276 277 276 275 269 259 248 243 247 254 258 264 259 256 265 272 279 282 288 289 290 290 291 291 288 286 282 281 280 278 275 268 264 277 274 273 267 262 245 240 237 246 250 261 262 260 264 269 274 274 268 266 261 257 251 252 244 238 241 239 238 233
304 302 303 302 302 301 302 301 302 302 300 297 296 292 290 289 285 285 279 272 279 286 280 274 280 276 274 260 241 230 238 250 256 262 256 259 261 265 275 282 284 287 289 293 293 293 293 291 289 287 285 285 286 282 283 278 268 275 273 272 267 257 250 246 241 254 255 258 260 267 273 275 280 276 272 266 259 259 255 249 244 242 237 237 236
298 296 298 302 302 308 304 304 299 293 298 299 294 293 293 288 290 281 275 282 287 287 274 282 279 277 268 251 241 234 241 253 257 257 255 261 265 273 278 281 284 286 290 292 294 295 295 294 293 293 290 291 281 278 281 282 279 278 273 274 272 263 256 248 245 247 256 255 261 273 273 273 279 280 274 271 265 262 257 254 249 243 239 237 237
298 302 304 299 303 302 300 301 306 306 305 298 295 295 292 288 282 278 277 285 292 282 285 276 274 262 255 251 240 243 242 241 253 256 259 259 264 269 277 282 288 291 295 293 296 297 296 296 300 298 290 284 281 279 281 282 281 276 274 272 269 267 263 257 249 251 254 263 263 273 272 270 267 278 275 275 274 268 261 259 253 248 242 237 237
304 304 298 288 296 299 305 305 309 309 305 297 297 295 293 289 284 282 285 287 291 285 270 268 270 268 268 258 256 246 248 251 253 254 256 263 271 275 279 283 285 291 301 295 295 296 298 298 298 299 293 286 284 280 269 271 273 278 279 273 266 262 260 257 248 252 254 259 265 273 273 270 257 275 277 277 271 267 266 263 256 250 246 244 240
302 300 289 289 292 306 309 302 297 298 306 302 297 298 295 288 289 286 287 284 283 278 265 267 266 279 268 258 245 246 247 254 255 263 264 270 277 273 273 271 282 285 300 291 294 299 306 304 301 nan 293 290 280 269 273 266 273 271 273 275 269 263 258 255 255 251 252 258 265 270 271 269 263 266 279 276 271 271 271 266 263 257 248 248 247
295 293 285 294 303 306 303 302 306 308 307 304 296 294 293 291 289 289 290 280 270 260 263 256 256 255 262 256 250 254 259 264 267 268 275 274 276 277 274 264 267 279 294 292 290 291 304 301 300 299 296 287 281 278 273 271 264 273 273 275 271 267 262 258 255 256 256 255 263 268 268 271 264 262 277 274 275 275 274 271 269 262 259 257 255
294 294 297 297 300 299 299 296 300 302 301 301 301 298 284 283 281 279 268 265 259 262 272 262 260 254 253 254 259 262 267 271 275 278 282 285 281 284 285 283 290 305 301 305 304 316 311 316 305 295 293 288 283 274 274 273 273 263 273 274 274 264 266 264 261 257 265 257 262 268 270 269 267 259 269 274 273 277 274 274 272 269 268 265 266
302 302 301 298 293 286 290 298 304 303 299 300 297 293 288 285 278 276 269 266 251 240 232 243 249 247 257 263 258 263 267 270 275 279 280 287 280 290 281 300 304 308 299 312 308 298 317 308 301 292 286 287 275 270 268 272 269 271 269 273 273 276 272 266 266 268 265 263 265 269 272 268 266 263 261 274 273 269 274 273 270 270 269 268 272
304 308 305 293 283 291 297 305 307 298 292 295 279 273 274 278 288 292 273 273 249 227 216 239 250 256 250 251 253 261 269 270 268 268 271 287 285 283 304 313 325 314 304 313 313 312 298 299 297 284 250 246 249 239 249 270 273 273 272 278 276 273 272 268 268 272 273 266 263 270 276 268 263 261 257 270 272 270 272 272 272 271 270 272 275
305 305 297 291 294 288 301 308 296 282 277 272 253 252 280 288 274 272 275 258 241 219 201 227 266 261 260 265 255 255 260 271 282 286 272 280 285 294 298 302 292 305 301 288 283 287 296 279 267 250 251 253 254 248 253 239 229 273 270 267 274 269 269 267 268 273 274 277 272 271 274 274 266 261 259 260 271 274 274 274 272 274 268 271 266
304 300 292 286 285 298 307 304 292 279 275 263 261 265 244 245 258 255 257 248 236 225 225 240 250 262 264 266 266 268 273 268 282 289 306 308 305 302 308 305 289 280 284 290 266 236 256 252 246 257 249 245 243 246 252 255 211 258 273 267 269 265 266 265 265 270 271 276 276 272 272 274 272 268 263 260 268 276 278 281 275 273 278 267 271
298 299 295 281 279 303 303 299 290 276 273 264 247 251 245 251 251 248 237 240 238 236 245 249 256 262 279 278 281 289 285 281 265 280 294 295 307 307 300 299 293 287 282 283 299 270 252 269 262 257 250 254 242 237 244 227 215 243 267 266 264 268 257 272 268 264 272 277 276 275 274 276 277 273 267 264 268 266 260 265 279 271 279 277 271
293 284 288 278 285 290 287 285 278 271 271 262 255 254 252 249 241 252 261 245 240 239 239 251 259 264 269 275 276 276 285 289 288 289 272 304 312 295 298 286 283 295 287 286 277 284 272 269 272 258 248 249 249 244 239 215 186 239 247 256 262 255 264 248 254 271 270 269 270 269 269 273 275 276 274 271 265 265 264 259 272 272 268 274 276
291 292 282 281 288 283 278 271 266 268 264 261 262 256 252 251 253 248 249 242 239 237 239 241 244 262 266 270 278 278 287 299 313 311 312 322 297 293 291 284 278 283 289 279 283 271 271 270 269 281 273 262 244 226 226 199 210 244 212 249 261 270 265 266 267 262 269 275 272 274 270 264 269 272 271 269 266 264 264 256 266 270 274 268 269
298 281 288 283 277 268 270 266 263 262 270 259 257 261 259 251 251 244 247 241 224 228 228 228 248 268 273 274 276 285 288 296 307 304 301 304 300 296 286 281 289 285 285 289 278 277 274 268 273 265 267 263 263 254 243 211 284 260 262 277 269 262 269 272 267 268 275 285 289 286 276 272 272 262 257 259 264 265 263 263 260 267 270 268 265
281 277 273 273 259 256 252 261 264 272 276 270 265 260 259 256 253 249 235 225 219 215 217 234 252 262 271 275 273 274 282 282 288 295 297 301 294 293 289 288 292 293 286 281 283 289 288 287 286 281 269 253 260 274 286 279 271 272 251 250 264 267 267 261 272 269 268 284 290 296 297 287 273 271 266 262 261 259 269 268 264 266 266 265 269
262 270 269 253 269 271 262 260 272 271 265 266 266 265 257 253 250 246 239 225 210 211 225 245 257 260 262 265 267 270 272 284 294 297 295 289 285 282 285 289 280 278 281 278 281 280 280 287 277 271 273 270 273 262 261 283 241 228 247 254 249 263 262 272 269 275 276 290 296 306 298 303 290 279 270 267 273 273 273 267 266 269 268 270 272
261 260 275 284 270 265 270 275 268 271 272 268 266 263 258 254 255 242 239 234 216 235 249 258 255 252 262 267 270 271 274 275 279 284 285 284 280 280 277 276 272 283 285 301 295 287 291 295 280 276 265 268 267 274 282 297 302 287 271 268 262 260 271 266 275 276 283 270 256 263 262 266 283 287 274 275 278 283 277 277 271 267 265 269 271
266 263 263 262 262 278 270 260 262 270 273 273 272 267 257 251 252 251 245 244 255 256 254 255 258 260 257 259 264 269 274 278 280 280 278 277 280 276 275 275 279 279 284 281 281 292 293 298 286 273 273 275 276 262 263 273 278 303 301 290 280 279 265 263 267 258 252 258 266 264 272 277 276 284 292 294 288 285 283 284 274 273 275 275 263
262 261 272 272 281 280 268 259 261 268 273 277 275 267 258 250 247 252 255 260 263 257 249 248 249 248 253 260 260 260 267 271 274 272 269 270 270 272 275 277 280 282 282 286 298 289 289 288 291 281 277 266 267 270 270 277 277 283 285 278 286 286 277 260 242 256 261 255 258 268 267 277 286 291 292 298 293 290 286 285 287 284 281 277 274
260 260 261 285 284 272 256 255 257 263 269 269 269 263 251 249 248 253 253 254 261 258 253 248 247 251 250 248 256 262 266 266 267 268 270 269 268 268 266 266 269 272 273 276 280 287 290 290 297 294 295 293 279 273 267 267 279 276 284 289 291 280 273 268 267 268 269 279 275 267 265 259 275 288 292 294 277 279 271 277 283 281 280 273 269
252 264 272 280 274 261 254 253 252 256 261 264 266 263 249 245 249 250 246 250 248 248 251 253 255 258 252 252 249 253 258 264 269 271 273 270 267 267 270 270 266 268 271 272 274 280 284 292 293 290 282 293 294 285 278 266 271 272 272 280 284 290 280 281 280 273 274 270 256 252 243 245 234 233 244 267 266 258 264 265 270 270 275 278 278
267 279 294 284 271 259 252 246 248 250 258 260 258 261 255 246 240 239 239 245 253 254 259 258 259 262 262 258 258 257 259 261 nan nan nan 261 261 262 261 262 264 261 261 263 270 280 282 280 283 284 287 279 278 298 297 293 276 274 282 288 273 284 292 284 288 281 264 271 275 268 256 250 244 252 262 272 274 280 283 281 277 278 282 281 278
284 280 274 267 258 255 246 246 248 252 257 255 253 254 250 240 230 231 243 257 261 259 261 263 261 259 nan 260 258 258 nan nan nan nan nan 263 263 262 261 261 259 257 255 nan 260 252 nan 279 277 273 273 275 291 284 290 284 285 292 279 284 288 291 277 287 290 284 272 269 271 270 255 253 261 259 262 267 273 277 290 288 280 277 273 270 273
289 280 266 256 251 239 237 235 236 251 253 251 251 248 238 228 222 227 250 266 265 264 262 262 nan 264 260 261 262 259 258 nan nan nan nan nan 267 268 268 267 nan nan nan nan nan 257 255 257 259 265 272 275 269 285 281 287 285 281 289 282 282 271 288 290 298 283 272 268 262 262 271 264 265 267 274 273 271 276 279 283 291 285 280 270 269
286 273 252 252 257 246 238 237 232 243 242 237 240 239 233 227 221 227 252 268 267 263 262 260 260 nan 262 259 257 259 nan nan nan nan 261 264 263 266 nan nan nan nan nan nan 254 254 255 250 255 257 257 260 264 266 264 271 268 267 280 287 292 290 294 291 287 289 289 275 268 268 271 277 264 264 265 nan 263 265 264 268 276 278 280 278 275
288 267 256 264 272 252 236 221 224 235 234 230 229 226 233 237 228 230 251 262 258 261 263 262 263 263 nan nan nan nan nan nan nan nan nan nan nan nan nan nan nan nan nan nan nan 257 nan 257 253 252 253 252 253 255 258 262 271 277 267 269 282 284 285 284 291 287 290 285 279 279 275 267 nan nan nan nan nan nan nan nan nan 267 nan 271 276
295 271 264 263 257 249 240 234 241 242 242 234 229 231 234 226 225 231 250 257 261 262 263 266 265 264 264 nan nan nan nan nan nan nan nan nan nan nan nan nan nan nan nan nan nan nan nan nan nan 256 253 255 250 251 259 258 262 262 270 272 269 268 279 290 291 290 279 283 282 283 279 nan nan nan nan nan nan nan nan nan nan nan nan nan nan
297 289 286 284 290 280 257 248 248 248 251 251 251 250 251 253 226 217 242 253 259 262 262 264 265 265 262 nan nan nan nan nan nan nan nan nan nan nan nan nan nan nan nan nan nan nan nan nan nan 258 258 260 258 257 257 260 261 262 nan 267 269 274 277 276 275 272 272 273 282 284 286 284 nan nan nan nan nan nan nan nan nan nan nan nan nan
286 291 292 292 296 289 279 274 267 253 255 262 263 261 266 263 240 223 250 255 257 260 261 266 267 268 nan nan nan nan nan nan nan nan nan nan nan nan nan nan nan nan nan nan nan nan nan nan nan nan nan nan nan nan nan nan nan nan nan nan nan nan nan nan 280 284 287 284 280 278 281 nan nan nan nan nan nan nan nan nan nan nan nan nan nan